DW2806 Weather Reports


Display with metric or nautical units.
time (UTC)temp
F
wind
direction
speed
MPH
gust
MPH
rain 1hr
in
rain 24hr
in
rain mn
in
humidity
%
barometer
mb
20260510081533 50 298 0.0 0.0 0.00 0.46 0.00 94 1025.7
20260510080025 51 298 0.0 0.0 0.00 0.46 0.00 94 1025.7
20260510074525 51 298 0.0 0.0 0.00 0.46 0.00 95 1025.7
20260510073038 51 298 0.0 0.0 0.00 0.46 0.00 95 1025.7
20260510071526 51 298 0.0 0.0 0.00 0.46 0.00 94 1025.7
20260510070025 51 298 0.0 0.0 0.00 0.46 0.00 94 1025.7
20260510064522 51 298 0.0 0.0 0.00 0.46 0.00 94 1025.7
20260510063023 51 298 0.0 0.0 0.00 0.46 0.00 94 1025.7
20260510061522 51 298 0.0 0.0 0.00 0.46 0.00 94 1025.7
20260510060033 51 298 0.0 0.0 0.00 0.46 0.00 94 1025.7
20260510054520 51 298 0.0 0.0 0.00 0.46 0.00 94 1025.7
20260510053019 51 298 0.0 0.0 0.00 0.46 0.00 94 1025.7
20260510051519 51 298 0.0 0.0 0.00 0.46 0.00 94 1025.7
20260510050018 51 298 0.0 0.0 0.00 0.46 0.00 94 1025.7
20260510044518 51 298 0.0 0.0 0.00 0.46 0.00 94 1025.7
20260510043018 51 297 0.0 0.0 0.00 0.46 0.00 94 1025.7
20260510041517 51 297 0.0 0.0 0.00 0.46 0.00 94 1025.7
20260510040016 51 297 0.0 0.0 0.00 0.46 0.46 94 1025.7
20260510034516 51 297 0.0 0.0 0.00 0.46 0.46 94 1025.7
20260510033016 51 297 0.0 0.0 0.00 0.46 0.46 94 1025.7
20260510031515 52 297 0.0 0.0 0.00 0.46 0.46 94 1025.7
20260510030012 51 297 0.0 0.0 0.00 0.46 0.46 95 1025.7
20260510024509 51 297 0.0 0.0 0.00 0.46 0.46 95 1025.7
20260510023008 51 297 0.0 0.0 0.00 0.46 0.46 95 1025.7
20260510021508 50 297 0.0 0.0 0.00 0.46 0.46 94 1025.7
20260510020008 50 298 0.0 0.0 0.00 0.46 0.46 94 1025.7
20260510014508 49 297 0.0 0.0 0.00 0.46 0.46 94 1025.7
20260510013007 49 297 0.0 0.0 0.00 0.46 0.46 94 1025.7
20260510011507 48 297 0.0 0.0 0.00 0.46 0.46 94 1025.7
20260510010005 48 297 0.0 0.0 0.00 0.46 0.46 94 1025.7
20260510004504 48 297 0.0 0.0 0.00 0.46 0.46 94 1025.7
20260510003005 48 297 0.0 0.0 0.00 0.46 0.46 94 1025.7
20260510001504 48 297 0.0 0.0 0.00 0.46 0.46 94 1025.7
20260510000004 48 297 0.0 0.0 0.00 0.46 0.46 93 1025.7
20260509234503 48 297 0.0 0.0 0.00 0.46 0.46 94 1025.7
20260509233003 48 297 0.0 0.0 0.00 0.46 0.46 93 1025.7
20260509231502 48 297 0.0 0.0 0.00 0.46 0.46 93 1025.7
20260509230002 48 297 0.0 0.0 0.00 0.46 0.46 93 1025.7
20260509224504 48 297 0.0 0.0 0.00 0.46 0.46 93 1025.7
20260509223002 48 297 0.0 0.0 0.00 0.46 0.46 93 1025.7
20260509221600 48 297 0.0 0.0 0.00 0.46 0.46 93 1025.7
20260509220100 48 297 0.0 0.0 0.00 0.46 0.46 93 1025.7
20260509214600 48 297 0.0 0.0 0.00 0.46 0.46 93 1025.7
20260509213059 48 297 0.0 1.0 0.00 0.46 0.46 93 1025.7
20260509211558 48 305 0.0 0.0 0.00 0.46 0.46 93 1025.7
20260509210107 48 305 0.0 0.0 0.00 0.46 0.46 93 1025.7
20260509204603 48 305 0.0 0.0 0.00 0.46 0.46 92 1025.7
20260509203056 49 305 0.0 0.0 0.00 0.46 0.46 92 1025.7
20260509201554 49 305 0.0 0.0 0.00 0.46 0.46 92 1025.7
20260509200107 49 305 0.0 0.0 0.00 0.46 0.46 92 1025.7
20260509194554 49 305 0.0 0.0 0.00 0.46 0.46 91 1025.7
20260509193054 49 256 0.0 0.0 0.00 0.46 0.46 92 1025.7
20260509191553 49 255 0.0 1.0 0.00 0.46 0.46 91 1025.7
20260509190057 49 326 0.0 5.0 0.00 0.46 0.46 91 1025.7
20260509184638 49 325 0.0 5.0 0.00 0.46 0.46 91 1025.7
20260509183056 49 325 0.0 5.0 0.00 0.46 0.46 90 1025.7
20260509181550 50 295 0.0 5.0 0.00 0.46 0.46 90 1025.7
20260509180049 51 266 0.0 0.0 0.00 0.46 0.46 91 1025.7
20260509174549 51 266 0.0 5.0 0.00 0.46 0.46 90 1025.7
20260509173049 51 148 0.0 0.0 0.00 0.46 0.46 90 1025.7
20260509171546 51 148 0.0 0.0 0.00 0.46 0.46 91 1025.7
20260509170046 51 88 0.0 0.0 0.00 0.46 0.46 91 1025.7
20260509164540 51 88 0.0 0.0 0.00 0.46 0.46 91 1025.7
20260509163045 50 88 0.0 0.0 0.00 0.46 0.46 91 1025.7
20260509161538 50 88 0.0 0.0 0.00 0.46 0.46 91 1025.7
20260509160037 49 88 0.0 0.0 0.00 0.46 0.46 89 1025.7
20260509154543 50 88 0.0 0.0 0.00 0.46 0.46 91 1025.7
20260509153136 49 88 0.0 0.0 0.00 0.46 0.46 90 1025.7
20260509151534 49 88 0.0 0.0 0.00 0.46 0.46 90 1025.7
20260509150033 49 88 0.0 0.0 0.00 0.46 0.46 88 1025.7
20260509144535 49 88 0.0 0.0 0.00 0.46 0.46 89 1025.7
20260509143042 49 93 0.0 0.0 0.00 0.46 0.46 87 1025.7
20260509141540 49 93 0.0 0.0 0.00 0.46 0.46 88 1025.7
20260509140031 49 93 0.0 0.0 0.00 0.46 0.46 87 1025.7
20260509134530 49 93 0.0 0.0 0.00 0.46 0.46 85 1025.7
20260509133029 50 93 0.0 0.0 0.00 0.46 0.46 84 1025.7
20260509131535 50 93 0.0 0.0 0.00 0.46 0.46 79 1025.7
20260509130031 51 93 0.0 0.0 0.00 0.46 0.46 74 1025.7
20260509124534 50 93 0.0 0.0 0.00 0.46 0.46 72 1025.7
20260509123032 49 93 0.0 0.0 0.00 0.46 0.46 75 1025.7
20260509121520 48 93 0.0 0.0 0.00 0.46 0.46 81 1025.7
20260509120017 46 93 0.0 0.0 0.09 0.46 0.46 83 1025.7
20260509114513 45 93 0.0 0.0 0.10 0.46 0.46 86 1025.7
20260509113010 43 93 0.0 0.0 0.11 0.46 0.46 89 1025.7
20260509111508 42 93 0.0 0.0 0.12 0.46 0.46 90 1025.7
20260509110005 40 93 0.0 0.0 0.05 0.37 0.37 90 1025.7
20260509104513 39 93 0.0 0.0 0.04 0.36 0.36 90 1025.7
20260509103003 38 93 0.0 0.0 0.14 0.35 0.35 91 1025.7
20260509101503 37 93 0.0 0.0 0.34 0.34 0.34 91 1025.7
20260509100116 37 93 0.0 0.0 0.32 0.32 0.32 91 1025.7
20260509094604 36 93 0.0 0.0 0.32 0.32 0.32 90 1025.7
20260509093101 36 93 0.0 0.0 0.21 0.21 0.21 90 1025.7
20260509091606 36 93 0.0 0.0 0.00 0.00 0.00 90 1025.7
20260509090055 36 93 0.0 0.0 0.00 0.00 0.00 90 1025.7
20260509084553 36 93 0.0 0.0 0.00 0.00 0.00 89 1025.7
20260509083052 36 93 0.0 0.0 0.00 0.00 0.00 89 1025.7